Track ONEWEB-0068 now! 10-day predictions ONEWEB-0068 is classified as:
1 45446U 20020Y 21110.52695882 -.00000018 00000-0 -88336-4 0 9990 2 45446 87.8947 35.5600 0001673 63.5157 296.6142 13.10949681 55711